Arar current weather conditions

sailwx.info

Wind from 280 at 6 knots

Air temperature 16.0° C
Dewpoint 12.0° C

Last reported at 2014-Oct-20 03:00 UTC.
Time now 2014-Oct-20 04:20 UTC

Location: N 30°54' E 041°08'.
View on Google Maps.

See reports from other nearby stations

  
Tides and Currents Weather Stations Pressure Air Temp Water Temp Dewpoint Dewpoint Depression Visibility Wind Speed Wind Dir Waves Ship Positions
date/time (UTC)wind fromknots sea level pressurealtimeterstation pressurevisibilityair tempwater tempwave heightnotes
2014-Oct-20 03:00 280 6 16.0
2014-Oct-20 02:00 290 6 16.0
2014-Oct-20 01:00 330 7 17.0
2014-Oct-20 00:00 330 7 18.0
2014-Oct-19 23:00 320 9 19.0
2014-Oct-19 22:00 290 8 19.0
2014-Oct-19 21:00 260 5 20.0
2014-Oct-19 20:00 270 4 22.0
2014-Oct-19 19:00 300 3 22.0
2014-Oct-19 18:00 290 6 22.0
2014-Oct-19 17:00 290 6 24.0
2014-Oct-19 16:00 260 5 26.0
2014-Oct-19 15:00 260 9 28.0
2014-Oct-19 14:00 230 13 31.0
2014-Oct-19 13:00 230 14 32.0
2014-Oct-19 12:00 240 8 31.0
2014-Oct-19 11:00 250 12 31.0
2014-Oct-19 10:00 260 11 31.0
2014-Oct-19 09:00 260 11 29.0
2014-Oct-19 08:00 260 7 27.0
2014-Oct-19 07:00 240 5 25.0
2014-Oct-19 06:00 270 9 23.0
2014-Oct-19 05:00 270 6 20.0
2014-Oct-19 04:00 260 4 17.0
2014-Oct-19 03:00 260 6 16.0
2014-Oct-19 02:00 260 5 16.0
2014-Oct-19 01:00 270 6 17.0
2014-Oct-19 00:00 260 6 18.0
2014-Oct-18 23:00 270 6 19.0
2014-Oct-18 22:00 270 4 19.0
2014-Oct-18 21:00 270 6 20.0
2014-Oct-18 20:00 260 5 21.0
2014-Oct-18 19:00 260 6 22.0
2014-Oct-18 18:00 270 6 24.0
2014-Oct-18 17:00 260 7 24.0
2014-Oct-18 16:00 300 7 26.0
2014-Oct-18 15:00 280 9 28.0
2014-Oct-18 14:00 270 11 30.0
2014-Oct-18 13:00 280 14 31.0
2014-Oct-18 12:00 290 14 32.0
2014-Oct-18 11:00 280 18 32.0
2014-Oct-18 10:00 270 14 31.0
2014-Oct-18 09:00 280 13 30.0
2014-Oct-18 08:00 270 13 28.0
2014-Oct-18 07:00 280 12 26.0
2014-Oct-18 06:00 270 10 21.0
2014-Oct-18 05:00 250 6 19.0
2014-Oct-18 04:00 260 6 16.0